User: anonymous   Login
Location: Unspecified
(0.0000°N, 0.0000°E)
Time: 01:31:57
(UTC+00:00)
Language:

Amsat-Oscar-13 - Orbit

View from above orbital plane
View from above orbital plane
View from above satellite
View from above satellite

Ground track
Ground track

The orbit data is extracted from the following two-line orbital elements,

1 19216U 88051B   96340.36293920  .64194205  34729-4  46505-3 0  3848
2 19216  56.9100  66.0967 1385719  63.2476 313.9974 13.38919575 33595
Epoch (UTC): 05 December 1996 08:42:37
Eccentricity: 0.1385719
inclination: 56.9100°
perigee height: 75 km
apogee height: 2151 km
right ascension of ascending node: 66.0967°
argument of perigee: 63.2476°
revolutions per day: 13.38919575
mean anomaly at epoch: 313.9974°
orbit number at epoch: 3359

The dashed part of the orbit path shows where the satellite is in the earth's shadow,  

DLR